Weather History for KI16 - August, 2014

Change the Weather History Date:

Saturday, August 9, 2014

  Actual Average (KBKW) Record (KBKW)
Temperature  
Mean Temperature 68 °F 70 °F  
Max Temperature 70 °F 80 °F 94 °F (1896)
Min Temperature 66 °F 61 °F 44 °F (1989)
Degree Days  
Heating Degree Days 0 0  
Month to date heating degree days 0  
Since 1 June heating degree days 47  
Since 1 July heating degree days 8  
Cooling Degree Days 3 6  
Month to date cooling degree days 54  
Year to date cooling degree days 387  
Since 1 June cooling degree days 346  
Growing Degree Days 18 (Base 50)    
Moisture  
Dew Point 68 °F    
Average Humidity 98    
Maximum Humidity 100    
Minimum Humidity 94    
Precipitation  
Precipitation 0.00 in 0.14 in 1.91 in (2003)
Month to date precipitation 1.26  
Year to date precipitation 27.45  
Snow  
Snow 0.00 in - - ()
Month to date snowfall  
Since 1 September snowfall  
Snow Depth -    
Sea Level Pressure  
Sea Level Pressure 30.14 in    
Wind  
Wind Speed - (North)    
Max Wind Speed -    
Max Gust Speed -    
Visibility 6 miles    
Events Rain    
T = Trace of Precipitation, MM = Missing Value Source: NWS Daily Summary

Daily Weather History Graph

Daily Weather History Graph

Search for Another Location

Airport or City:

Trip Planner

Search our weather history database for the weather conditions in past years. The results will help you decide how hot, cold, wet, or windy it might be!

Date:

Astronomy

Aug. 09, 2014 Rise Set
Actual Time 6:36 AM EDT 8:25 PM EDT
Civil Twilight 6:08 AM EDT 8:54 PM EDT
Nautical Twilight 5:34 AM EDT 9:28 PM EDT
Astronomical Twilight 4:57 AM EDT 10:05 PM EDT
Moon 7:26 PM EDT (8/9) 5:16 AM EDT (8/9)
Length of Visible Light 14h 45m
Length of Day
13h 49m
Waxing Gibbous, 98% of the Moon is Illuminated
Aug 9
Waxing Gibbous
Aug 10
Full
Aug 17
Last Quarter
Aug 25
New
Sep 2
First Quarter

Hourly Weather History & Observations

Time (EDT) Temp. Dew Point Humidity Pressure Visibility Wind Dir Wind Speed Gust Speed Precip Events Conditions
12:15 AM 68.0 °F 68.0 °F 100% 30.14 in 7.0 mi North - - N/A   Overcast
1:15 AM 67.6 °F 67.6 °F 100% 30.14 in 5.0 mi North - - N/A   Overcast
1:35 AM 68.0 °F 68.0 °F 100% 30.13 in 5.0 mi North - - N/A   Overcast
1:55 AM 67.8 °F 67.8 °F 100% 30.13 in 5.0 mi North - - N/A   Overcast
2:15 AM 67.6 °F 67.6 °F 100% 30.12 in 5.0 mi North - - N/A Rain Light Rain
2:35 AM 67.5 °F 67.5 °F 100% 30.12 in 7.0 mi North - - N/A Rain Light Rain
2:55 AM 67.6 °F 67.6 °F 100% 30.11 in 7.0 mi North - - N/A   Overcast
3:15 AM 67.6 °F 67.6 °F 100% 30.11 in 7.0 mi North - - N/A   Overcast
3:35 AM 67.8 °F 67.8 °F 100% 30.11 in 4.0 mi North - - N/A Rain Rain
3:55 AM 67.6 °F 67.6 °F 100% 30.11 in 7.0 mi North - - N/A   Overcast
4:15 AM 68.0 °F 68.0 °F 100% 30.12 in 5.0 mi North - - N/A Rain Rain
4:35 AM 67.5 °F 67.5 °F 100% 30.12 in 2.5 mi North - - N/A Rain Heavy Rain
4:55 AM 67.6 °F 67.6 °F 100% 30.12 in 7.0 mi North - - N/A Rain Rain
5:15 AM 67.6 °F 67.6 °F 100% 30.13 in 7.0 mi North - - N/A Rain Rain
5:35 AM 67.5 °F 67.5 °F 100% 30.12 in 2.5 mi North - - N/A Rain Rain
5:55 AM 67.6 °F 67.6 °F 100% 30.13 in 10.0 mi North - - N/A   Overcast
6:15 AM 67.6 °F 67.6 °F 100% 30.13 in 10.0 mi North - - N/A   Overcast
6:55 AM 67.6 °F 67.6 °F 100% 30.13 in 10.0 mi North - - N/A Rain Rain
7:15 AM 67.6 °F 67.6 °F 100% 30.13 in 10.0 mi North - - N/A Rain Rain
7:35 AM 67.5 °F 67.5 °F 100% 30.13 in 1.0 mi North - - N/A Rain Heavy Rain
7:55 AM 67.5 °F 67.5 °F 100% 30.14 in 2.0 mi North - - N/A Rain Heavy Rain
8:15 AM 67.3 °F 67.3 °F 100% 30.15 in 1.5 mi North - - N/A Rain Heavy Rain
8:35 AM 67.3 °F 67.3 °F 100% 30.15 in 2.5 mi North - - N/A Rain Heavy Rain
8:55 AM 67.3 °F 67.3 °F 100% 30.16 in 1.8 mi North - - N/A Rain Heavy Rain
9:15 AM 67.1 °F 67.1 °F 100% 30.16 in 2.5 mi North - - N/A Rain Heavy Rain
9:35 AM 67.1 °F 67.1 °F 100% 30.16 in 1.2 mi North - - N/A Rain Heavy Rain
10:15 AM 66.9 °F 66.9 °F 100% 30.16 in 0.5 mi North - - N/A Rain Heavy Rain
10:35 AM 67.1 °F 67.1 °F 100% 30.16 in 1.0 mi North - - N/A Rain Heavy Rain
10:55 AM 67.1 °F 67.1 °F 100% 30.16 in 2.0 mi North - - N/A Rain Rain
11:15 AM 67.3 °F 67.3 °F 100% 30.16 in 5.0 mi North - - N/A Rain Rain
11:35 AM 67.5 °F 67.5 °F 100% 30.17 in 3.0 mi North - - N/A Rain Rain
11:55 AM 67.8 °F 67.8 °F 100% 30.17 in 2.5 mi North - - N/A Rain Rain
12:15 PM 68.7 °F 68.7 °F 100% 30.17 in 10.0 mi North - - N/A Rain Light Rain
12:35 PM 69.4 °F 68.9 °F 98% 30.16 in 10.0 mi North - - N/A   Overcast
12:55 PM 70.2 °F 69.1 °F 96% 30.16 in 10.0 mi North - - N/A   Overcast
1:15 PM 70.5 °F 69.3 °F 96% 30.15 in 10.0 mi North - - N/A   Overcast
1:35 PM 70.5 °F 69.1 °F 95% 30.15 in 10.0 mi North - - N/A   Overcast
1:55 PM 70.5 °F 69.6 °F 97% 30.15 in 3.0 mi North - - N/A Rain Heavy Rain
2:15 PM 70.2 °F 70.0 °F 99% 30.14 in 1.2 mi North - - N/A Rain Heavy Rain
2:35 PM 70.7 °F 70.7 °F 100% 30.14 in 2.5 mi North - - N/A Rain Light Rain
2:55 PM 70.7 °F 70.3 °F 99% 30.14 in 5.0 mi North - - N/A   Drizzle
3:15 PM 70.7 °F 70.3 °F 99% 30.13 in 3.0 mi North - - N/A Rain Rain
3:35 PM 70.3 °F 70.0 °F 99% 30.13 in 5.0 mi North - - N/A   Drizzle
3:55 PM 70.0 °F 69.4 °F 98% 30.13 in 3.0 mi North - - N/A Rain Light Rain
4:15 PM 70.0 °F 69.8 °F 99% 30.13 in 3.0 mi North - - N/A   Drizzle
4:55 PM 69.8 °F 69.4 °F 99% 30.13 in 2.0 mi North - - N/A Rain Heavy Rain
5:15 PM 69.4 °F 69.1 °F 99% 30.13 in 2.5 mi North - - N/A Rain Heavy Rain
5:35 PM 69.6 °F 69.3 °F 99% 30.13 in 3.0 mi North - - N/A   Drizzle
5:55 PM 69.8 °F 69.1 °F 98% 30.13 in 5.0 mi North - - N/A   Light Drizzle
6:15 PM 70.0 °F 69.8 °F 99% 30.12 in 10.0 mi North - - N/A   Overcast
6:35 PM 70.7 °F 69.8 °F 97% 30.12 in 10.0 mi North - - N/A   Overcast
6:55 PM 70.3 °F 69.3 °F 96% 30.13 in 10.0 mi North - - N/A   Overcast
7:15 PM 70.2 °F 69.1 °F 96% 30.13 in 10.0 mi North - - N/A   Overcast
7:35 PM 69.8 °F 68.7 °F 96% 30.13 in 10.0 mi North - - N/A   Overcast
7:55 PM 69.8 °F 68.4 °F 95% 30.13 in 10.0 mi North - - N/A   Overcast
8:15 PM 69.3 °F 68.2 °F 96% 30.13 in 10.0 mi North - - N/A   Overcast
8:35 PM 69.1 °F 68.2 °F 97% 30.14 in 10.0 mi North - - N/A   Overcast
8:55 PM 69.1 °F 67.8 °F 96% 30.14 in 10.0 mi North - - N/A   Overcast
9:15 PM 68.9 °F 67.6 °F 96% 30.14 in 10.0 mi North - - N/A   Overcast
9:35 PM 68.4 °F 67.5 °F 97% 30.15 in 10.0 mi North - - N/A   Overcast
9:55 PM 68.4 °F 67.3 °F 96% 30.15 in 10.0 mi North - - N/A   Overcast
10:15 PM 68.9 °F 67.1 °F 94% 30.15 in 10.0 mi North - - N/A   Overcast
10:35 PM 68.4 °F 66.6 °F 94% 30.15 in 10.0 mi North - - N/A   Scattered Clouds
10:55 PM 68.0 °F 66.2 °F 94% 30.15 in 10.0 mi North - - N/A   Clear
11:15 PM 68.0 °F 66.2 °F 94% 30.15 in 10.0 mi North - - N/A   Clear
11:55 PM 66.2 °F 65.7 °F 98% 30.15 in 10.0 mi North - - N/A   Scattered Clouds